TimeCDT,TemperatureF,Dew PointF,Humidity,Sea Level PressureIn,VisibilityMPH,Wind Direction,Wind SpeedMPH,Gust SpeedMPH,PrecipitationIn,Events,Conditions,WindDirDegrees,DateUTC
12:15 AM,53.6,51.8,94,29.23,10.0,SE,21.9,28.8,0.01,,Overcast,130,2012-10-18 05:15:00
12:35 AM,53.6,51.8,94,29.22,8.0,SE,18.4,29.9,0.04,,Overcast,130,2012-10-18 05:35:00
12:55 AM,53.6,51.8,94,29.20,7.0,SE,13.8,18.4,0.07,,Overcast,130,2012-10-18 05:55:00
1:15 AM,53.6,50.0,88,29.17,10.0,SE,12.7,21.9,N/A,,Overcast,130,2012-10-18 06:15:00
1:35 AM,53.6,51.8,94,29.16,5.0,SSE,16.1,28.8,0.02,,Overcast,160,2012-10-18 06:35:00
1:55 AM,53.6,51.8,94,29.16,9.0,South,10.4,-,0.02,,Overcast,190,2012-10-18 06:55:00
2:15 AM,53.6,51.8,94,29.17,10.0,SSW,12.7,-,N/A,,Overcast,210,2012-10-18 07:15:00
2:35 AM,53.6,51.8,94,29.17,10.0,WSW,12.7,-,N/A,,Mostly Cloudy,240,2012-10-18 07:35:00
2:55 AM,53.6,50.0,88,29.19,10.0,SW,15.0,21.9,N/A,,Overcast,230,2012-10-18 07:55:00
3:15 AM,53.6,50.0,88,29.20,9.0,SW,12.7,19.6,N/A,,Overcast,230,2012-10-18 08:15:00
3:35 AM,53.6,48.2,82,29.20,10.0,SW,12.7,18.4,N/A,,Overcast,220,2012-10-18 08:35:00
3:55 AM,53.6,48.2,82,29.21,10.0,SW,12.7,-,N/A,,Overcast,230,2012-10-18 08:55:00
4:15 AM,51.8,48.2,88,29.22,10.0,SW,11.5,-,N/A,,Overcast,220,2012-10-18 09:15:00
4:35 AM,51.8,48.2,88,29.22,10.0,SW,11.5,16.1,N/A,,Overcast,220,2012-10-18 09:35:00
4:55 AM,51.8,46.4,82,29.21,10.0,WSW,13.8,19.6,N/A,,Overcast,240,2012-10-18 09:55:00
5:15 AM,51.8,46.4,82,29.22,10.0,WSW,8.1,-,N/A,,Overcast,250,2012-10-18 10:15:00
5:35 AM,50.0,44.6,82,29.22,10.0,WSW,8.1,-,N/A,,Overcast,250,2012-10-18 10:35:00
5:55 AM,50.0,44.6,82,29.24,10.0,SW,5.8,-,N/A,,Overcast,220,2012-10-18 10:55:00
6:35 AM,50.0,44.6,82,29.25,10.0,SW,6.9,-,N/A,,Overcast,220,2012-10-18 11:35:00
6:55 AM,48.2,44.6,87,29.25,10.0,SW,4.6,-,N/A,,Overcast,220,2012-10-18 11:55:00
7:15 AM,48.2,44.6,87,29.25,10.0,SSW,5.8,-,N/A,,Overcast,200,2012-10-18 12:15:00
7:35 AM,48.2,44.6,87,29.25,10.0,SSW,5.8,-,N/A,,Overcast,200,2012-10-18 12:35:00
7:55 AM,48.2,44.6,87,29.26,10.0,SSW,5.8,-,N/A,,Mostly Cloudy,210,2012-10-18 12:55:00
8:15 AM,48.2,44.6,87,29.26,10.0,SSW,8.1,-,N/A,,Mostly Cloudy,210,2012-10-18 13:15:00
8:35 AM,48.2,42.8,82,29.27,10.0,SW,9.2,-,N/A,,Overcast,220,2012-10-18 13:35:00
8:55 AM,48.2,42.8,82,29.27,10.0,SW,9.2,-,N/A,,Overcast,230,2012-10-18 13:55:00
9:15 AM,48.2,42.8,82,29.27,10.0,SSW,9.2,-,N/A,,Overcast,210,2012-10-18 14:15:00
9:35 AM,48.2,42.8,82,29.28,10.0,SW,9.2,-,N/A,,Overcast,220,2012-10-18 14:35:00
9:55 AM,48.2,42.8,82,29.28,10.0,SSW,6.9,-,N/A,,Overcast,210,2012-10-18 14:55:00
10:15 AM,48.2,42.8,82,29.29,10.0,SSW,9.2,-,N/A,,Overcast,210,2012-10-18 15:15:00
10:35 AM,48.2,42.8,82,29.29,10.0,SSW,9.2,-,N/A,,Overcast,210,2012-10-18 15:35:00
10:55 AM,48.2,42.8,82,29.29,9.0,SSW,12.7,-,N/A,,Overcast,210,2012-10-18 15:55:00
11:15 AM,48.2,42.8,82,29.30,10.0,South,10.4,-,N/A,,Overcast,190,2012-10-18 16:15:00
11:35 AM,48.2,42.8,82,29.31,5.0,South,9.2,-,N/A,,Mostly Cloudy,180,2012-10-18 16:35:00
11:55 AM,48.2,42.8,82,29.30,10.0,SSE,10.4,-,N/A,,Overcast,160,2012-10-18 16:55:00
12:15 PM,48.2,42.8,82,29.31,7.0,South,10.4,16.1,0.03,,Mostly Cloudy,180,2012-10-18 17:15:00
12:35 PM,48.2,42.8,82,29.31,10.0,South,13.8,-,0.03,,Overcast,180,2012-10-18 17:35:00
12:55 PM,48.2,42.8,82,29.32,10.0,South,9.2,-,0.03,,Overcast,190,2012-10-18 17:55:00
1:15 PM,48.2,42.8,82,29.32,9.0,South,12.7,-,N/A,,Overcast,180,2012-10-18 18:15:00
1:35 PM,46.4,41.0,81,29.33,10.0,SSE,10.4,-,0.01,,Overcast,160,2012-10-18 18:35:00
1:55 PM,46.4,39.2,76,29.34,10.0,SSW,15.0,-,0.01,,Overcast,200,2012-10-18 18:55:00
2:15 PM,46.4,41.0,81,29.34,10.0,South,12.7,-,N/A,,Overcast,190,2012-10-18 19:15:00
2:35 PM,48.2,41.0,76,29.35,10.0,South,16.1,21.9,N/A,,Overcast,190,2012-10-18 19:35:00
2:55 PM,48.2,39.2,71,29.36,10.0,South,12.7,24.2,N/A,,Overcast,190,2012-10-18 19:55:00
3:15 PM,48.2,39.2,71,29.36,10.0,South,13.8,-,0.01,,Mostly Cloudy,190,2012-10-18 20:15:00
3:35 PM,48.2,39.2,71,29.37,9.0,South,10.4,-,0.01,,Mostly Cloudy,190,2012-10-18 20:35:00
3:55 PM,46.4,41.0,81,29.38,8.0,SSE,11.5,-,0.06,,Overcast,160,2012-10-18 20:55:00
4:15 PM,46.4,42.8,87,29.39,10.0,South,8.1,-,N/A,,Mostly Cloudy,180,2012-10-18 21:15:00
4:35 PM,46.4,42.8,87,29.39,10.0,SSE,11.5,-,N/A,,Mostly Cloudy,160,2012-10-18 21:35:00
4:55 PM,46.4,39.2,76,29.41,9.0,South,15.0,19.6,N/A,,Mostly Cloudy,190,2012-10-18 21:55:00
5:15 PM,44.6,39.2,81,29.42,10.0,SSW,10.4,23.0,N/A,,Overcast,200,2012-10-18 22:15:00
5:35 PM,44.6,39.2,81,29.43,10.0,South,6.9,-,N/A,,Mostly Cloudy,180,2012-10-18 22:35:00
6:15 PM,44.6,39.2,81,29.44,10.0,South,3.5,-,N/A,,Mostly Cloudy,170,2012-10-18 23:15:00
6:35 PM,44.6,39.2,81,29.44,10.0,South,3.5,-,N/A,,Overcast,190,2012-10-18 23:35:00
6:55 PM,44.6,39.2,81,29.45,10.0,South,8.1,-,N/A,,Overcast,180,2012-10-18 23:55:00
7:15 PM,44.6,39.2,81,29.45,10.0,South,13.8,18.4,N/A,,Overcast,180,2012-10-19 00:15:00
7:35 PM,44.6,39.2,81,29.46,10.0,South,8.1,-,N/A,,Mostly Cloudy,170,2012-10-19 00:35:00
7:55 PM,44.6,39.2,81,29.46,10.0,SSE,6.9,-,N/A,,Mostly Cloudy,150,2012-10-19 00:55:00
8:15 PM,44.6,39.2,81,29.46,10.0,SSE,9.2,-,N/A,,Mostly Cloudy,160,2012-10-19 01:15:00
8:35 PM,44.6,39.2,81,29.46,10.0,SSE,11.5,-,N/A,,Mostly Cloudy,160,2012-10-19 01:35:00
8:55 PM,44.6,39.2,81,29.46,10.0,SSE,10.4,-,N/A,,Overcast,160,2012-10-19 01:55:00
9:15 PM,44.6,39.2,81,29.47,10.0,SSE,13.8,-,N/A,,Overcast,160,2012-10-19 02:15:00
9:35 PM,44.6,39.2,81,29.47,10.0,South,10.4,-,N/A,,Overcast,170,2012-10-19 02:35:00
9:55 PM,44.6,39.2,81,29.47,10.0,South,10.4,-,N/A,,Mostly Cloudy,170,2012-10-19 02:55:00
10:15 PM,44.6,39.2,81,29.47,10.0,South,10.4,-,N/A,,Overcast,170,2012-10-19 03:15:00
10:35 PM,44.6,39.2,81,29.47,10.0,SSE,11.5,16.1,N/A,,Mostly Cloudy,160,2012-10-19 03:35:00
10:55 PM,44.6,39.2,81,29.47,10.0,SSE,11.5,-,N/A,,Overcast,160,2012-10-19 03:55:00
11:15 PM,44.6,39.2,81,29.47,10.0,SSE,10.4,-,N/A,,Mostly Cloudy,160,2012-10-19 04:15:00
11:35 PM,44.6,39.2,81,29.47,10.0,SSE,10.4,-,N/A,,Overcast,160,2012-10-19 04:35:00
11:55 PM,44.6,39.2,81,29.47,10.0,South,11.5,18.4,N/A,,Mostly Cloudy,170,2012-10-19 04:55:00